[[{"header":{"parameterUnit":"m.s-1","parameterCategory":1,"la1":30.2992,"la2":30.254,"lo1":-89.0895,"lo2":-89.0443,"dy":0.0025,"dx":0.0025,"nx":19,"ny":19,"refTime":"2026-04-01T21:00:00:Z","depth":0,"parameterNumber":2,"parameterNumberName":"U-component_of_WINDS"},"data":[0,0,0,-3.4649,-3.4651,-3.4773,-3.4774,-3.4934,-3.4936,0,0,0,0,0,0,0,0,0,0,0,-3.4615,-3.4616,-3.4648,-3.4652,-3.4773,-3.4774,-3.4934,-3.4936,0,0,0,0,0,0,0,0,0,0,0,-3.4614,-3.4616,-3.4617,-3.4652,-3.4773,-3.4774,-3.4934,-3.484,0,0,0,0,0,0,0,0,0,0,-3.4721,-3.4692,-3.4615,-3.4617,-3.4653,-3.4773,-3.4774,-3.4836,-3.4846,-3.4881,0,-3.4912,0,-3.4926,-3.4947,-3.4947,0,0,0,-3.465,-3.4683,-3.4714,-3.4617,-3.4654,-3.4773,-3.4718,-3.4841,-3.4853,-3.4895,-3.4914,-3.492,-3.4929,-3.4948,-3.4949,-3.5153,-3.5154,0,0,-3.4643,-3.4638,-3.4706,-3.4722,-3.4702,-3.4714,-3.4722,-3.4849,-3.4869,-3.4915,-3.4924,-3.4932,-3.4949,-3.495,-3.5152,-3.5154,0,0,0,-3.4625,-3.4633,-3.4661,-3.4715,-3.4737,-3.4718,-3.4726,-3.4864,-3.4873,-3.4925,-3.4934,-3.495,-3.4952,-3.5151,-3.5153,-3.5197,0,0,0,-3.4621,-3.4623,-3.4658,-3.4656,-3.4734,-3.4802,-3.4739,-3.4865,-3.4879,-3.4933,-3.495,-3.4954,-3.515,-3.5152,-3.5193,-3.5218,0,0,0,-3.4606,-3.4621,-3.4639,-3.4655,-3.4708,-3.48,-3.4816,-3.4868,-3.4884,-3.4948,-3.4954,-3.5149,-3.5152,-3.519,-3.5213,-3.527,0,0,0,-3.4589,-3.4677,-3.464,-3.4742,-3.4706,-3.4826,-3.4816,-3.4905,-3.4965,-3.4951,-3.515,-3.5153,-3.5189,-3.521,-3.5267,-3.5316,-3.5336,0,0,-3.4697,-3.469,-3.475,-3.4721,-3.4845,-3.4808,-3.494,-3.5,-3.5012,-3.5106,-3.5111,-3.5195,-3.5213,-3.5269,-3.5455,-3.5471,0,0,0,-3.4783,-3.4826,-3.4861,-3.4917,-3.4965,-3.5008,-3.5049,-3.5072,-3.5151,-3.5059,-3.5231,-3.5242,-3.5276,-3.53,-3.5313,-3.5342,-3.5164,-3.5163,-3.5163,-3.4927,-3.4937,-3.5038,-3.5063,-3.5118,-3.516,-3.5205,-3.5243,-3.5237,-3.5278,-3.5305,-3.5416,-3.5444,-3.5454,-3.5484,-3.5333,-3.5334,-3.5334,-3.5334,-3.5086,-3.5148,-3.5139,-3.5233,-3.5244,-3.5324,-3.5368,-3.5362,-3.5438,-3.5396,-3.5426,-3.5379,-3.5472,-3.5498,-3.5337,-3.5337,-3.5336,-3.5336,-3.5336,-3.518,-3.5212,-3.5238,-3.5321,-3.5384,-3.5407,-3.5481,-3.5488,-3.5496,-3.5526,-3.5555,-3.5554,-3.5554,-3.554,-3.554,-3.554,-3.5541,-3.5541,-3.5541,-3.5267,-3.5295,-3.5356,-3.5415,-3.5453,-3.5503,-3.5547,-3.5585,-3.5628,-3.5628,-3.5628,-3.5618,-3.5479,-3.5443,-3.5547,-3.5546,-3.5545,-3.5545,-3.5544,-3.5422,-3.5389,-3.5482,-3.552,-3.559,-3.5653,-3.5662,-3.5738,-3.577,-3.5806,-3.5791,-3.5687,-3.5681,-3.567,-3.564,-3.5788,-3.5788,-3.5788,-3.5788,-3.5501,-3.5499,-3.5596,-3.5656,-3.5715,-3.5733,-3.584,-3.5875,-3.5907,-3.5928,-3.5908,-3.587,-3.5859,-3.5858,-3.5844,-3.5816,-3.6006,-3.6006,-3.6006,-3.5597,-3.5601,-3.5689,-3.5719,-3.5775,-3.5823,-3.5923,-3.5993,-3.6022,-3.6015,-3.5944,-3.5935,-3.5874,-3.5853,-3.5843,-3.5819,-3.5769,0,0]},{"header":{"parameterUnit":"m.s-1","parameterCategory":1,"la1":30.2992,"la2":30.254,"lo1":-89.0895,"lo2":-89.0443,"dy":0.0025,"dx":0.0025,"nx":19,"ny":19,"refTime":"2026-04-01T21:00:00:Z","depth":0,"parameterNumber":3,"parameterNumberName":"V-component_of_WINDS"},"data":[0,0,0,4.1085,4.1087,4.1194,4.1194,4.1331,4.1332,0,0,0,0,0,0,0,0,0,0,0,4.1054,4.1055,4.1084,4.1087,4.1194,4.1194,4.1331,4.1332,0,0,0,0,0,0,0,0,0,0,0,4.1054,4.1055,4.1056,4.1088,4.1194,4.1194,4.1331,4.125,0,0,0,0,0,0,0,0,0,0,4.1146,4.1119,4.1055,4.1056,4.1088,4.1194,4.1194,4.1246,4.1255,4.1283,0,4.131,0,4.1324,4.1342,4.1342,0,0,0,4.1086,4.1112,4.114,4.1056,4.1089,4.1193,4.1145,4.1251,4.1261,4.1295,4.1312,4.1317,4.1326,4.1342,4.1343,4.1519,4.1519,0,0,4.108,4.1074,4.1133,4.1146,4.1131,4.1142,4.1149,4.1257,4.1274,4.1313,4.132,4.1328,4.1343,4.1344,4.1518,4.1519,0,0,0,4.1064,4.1069,4.1095,4.1141,4.116,4.1145,4.1153,4.1269,4.1278,4.1322,4.133,4.1344,4.1346,4.1517,4.1518,4.1558,0,0,0,4.106,4.106,4.1092,4.1089,4.1158,4.1216,4.1163,4.1271,4.1283,4.1329,4.1344,4.1347,4.1516,4.1518,4.1555,4.1577,0,0,0,4.1047,4.1059,4.1075,4.1089,4.1135,4.1215,4.123,4.1273,4.1288,4.1342,4.1348,4.1515,4.1517,4.1552,4.1573,4.1624,0,0,0,4.103,4.1106,4.1075,4.1163,4.1134,4.1239,4.1229,4.1307,4.1358,4.1345,4.1516,4.1518,4.1551,4.157,4.162,4.1666,4.1684,0,0,4.1122,4.1117,4.1169,4.1145,4.1254,4.1223,4.1338,4.1389,4.1398,4.1478,4.1482,4.1556,4.1572,4.1623,4.1786,4.1801,0,0,0,4.1197,4.1235,4.1265,4.1315,4.1358,4.1396,4.1431,4.1451,4.1519,4.1438,4.1588,4.1598,4.1627,4.1649,4.1662,4.1688,4.1528,4.1528,4.1527,4.1318,4.1329,4.1417,4.1442,4.149,4.1527,4.1568,4.16,4.1594,4.1629,4.1653,4.1751,4.1777,4.1786,4.1814,4.1677,4.1677,4.1677,4.1677,4.1455,4.1511,4.1505,4.1589,4.16,4.167,4.1709,4.1704,4.177,4.1733,4.176,4.1719,4.1801,4.1826,4.1681,4.168,4.168,4.1679,4.1679,4.1536,4.1565,4.1589,4.1665,4.1722,4.1743,4.1809,4.1816,4.1822,4.1849,4.1876,4.1875,4.1876,4.1861,4.1862,4.1862,4.1862,4.1863,4.1863,4.1611,4.1637,4.1693,4.1747,4.1782,4.1828,4.1868,4.1902,4.1941,4.1941,4.1941,4.1933,4.1807,4.1776,4.1868,4.1867,4.1866,4.1866,4.1866,4.1747,4.1718,4.1804,4.1839,4.1905,4.1962,4.1971,4.204,4.2069,4.2101,4.2089,4.1994,4.1988,4.1979,4.1953,4.2085,4.2085,4.2085,4.2085,4.1816,4.1815,4.1906,4.1962,4.2017,4.2035,4.2132,4.2165,4.2193,4.2212,4.2194,4.2161,4.215,4.2151,4.2137,4.2113,4.2283,4.2283,4.2284,4.1902,4.1907,4.1988,4.2018,4.2071,4.2116,4.2208,4.2273,4.2299,4.2292,4.2228,4.2219,4.2165,4.2147,4.2137,4.2116,4.2073,0,0]}]]